TimePDT,TemperatureF,Dew PointF,Humidity,Sea Level PressureIn,VisibilityMPH,Wind Direction,Wind SpeedMPH,Gust SpeedMPH,PrecipitationIn,Events,Conditions,WindDirDegrees,DateUTC
12:53 AM,75.0,10.9,9,30.14,10.0,NW,5.8,-,N/A,,Clear,310,2013-10-06 07:53:00
1:53 AM,71.1,14.0,11,30.14,10.0,NNW,4.6,-,N/A,,Clear,330,2013-10-06 08:53:00
2:53 AM,71.1,12.9,11,30.11,10.0,WNW,6.9,-,N/A,,Clear,290,2013-10-06 09:53:00
3:53 AM,66.9,15.1,14,30.10,10.0,West,3.5,-,N/A,,Clear,280,2013-10-06 10:53:00
4:53 AM,71.1,12.0,10,30.09,10.0,West,6.9,-,N/A,,Clear,280,2013-10-06 11:53:00
5:53 AM,69.1,15.1,13,30.10,10.0,West,4.6,-,N/A,,Clear,270,2013-10-06 12:53:00
6:53 AM,68.0,15.1,13,30.11,10.0,NW,5.8,-,N/A,,Clear,320,2013-10-06 13:53:00
7:53 AM,71.1,21.0,15,30.12,10.0,West,4.6,-,N/A,,Clear,280,2013-10-06 14:53:00
8:53 AM,77.0,19.9,12,30.14,10.0,Calm,Calm,-,N/A,,Clear,0,2013-10-06 15:53:00
9:53 AM,82.9,16.0,8,30.14,10.0,Calm,Calm,-,N/A,,Clear,0,2013-10-06 16:53:00
10:53 AM,84.9,9.0,6,30.12,10.0,Calm,Calm,-,N/A,,Clear,0,2013-10-06 17:53:00
11:53 AM,87.1,3.0,4,30.09,10.0,Calm,Calm,-,N/A,,Clear,0,2013-10-06 18:53:00
12:53 PM,89.1,-0.0,4,30.06,10.0,Calm,Calm,-,N/A,,Clear,0,2013-10-06 19:53:00
1:53 PM,91.0,5.0,4,30.02,10.0,Calm,Calm,-,N/A,,Clear,0,2013-10-06 20:53:00
2:53 PM,91.9,6.1,4,30.00,10.0,ESE,9.2,-,N/A,,Clear,120,2013-10-06 21:53:00
3:53 PM,91.9,5.0,4,29.99,10.0,SSE,5.8,-,N/A,,Clear,160,2013-10-06 22:53:00
4:53 PM,91.0,8.1,4,29.98,10.0,East,4.6,-,N/A,,Clear,100,2013-10-06 23:53:00
5:53 PM,89.1,15.1,6,29.96,10.0,East,8.1,-,N/A,,Clear,100,2013-10-07 00:53:00
6:53 PM,84.9,19.9,9,29.97,10.0,Calm,Calm,-,N/A,,Clear,0,2013-10-07 01:53:00
7:53 PM,80.1,28.0,15,29.98,10.0,Calm,Calm,-,N/A,,Clear,0,2013-10-07 02:53:00
8:53 PM,78.1,19.0,11,30.00,10.0,NNW,3.5,-,N/A,,Clear,330,2013-10-07 03:53:00
9:53 PM,73.9,19.9,13,30.00,10.0,NNW,4.6,-,N/A,,Clear,340,2013-10-07 04:53:00
10:53 PM,72.0,14.0,11,30.00,10.0,NNW,6.9,-,N/A,,Clear,330,2013-10-07 05:53:00
11:53 PM,73.0,14.0,11,29.99,10.0,NW,3.5,-,N/A,,Clear,320,2013-10-07 06:53:00